Other Public Products
Issued by NWS Charleston, SC

Current Version | Previous Version | Graphics & Text | Print | Product List | Glossary On
Versions: 1 2 3 4 5 6 7 8 9 10 11 12 13 14 15 16 17 18 19 20 21 22 23 24 25 26 27 28 29 30 31 32 33 34 35 36 37 38 39 40 41 42 43 44 45 46 47 48 49 50
000
FPUS82 KCHS 071812
OPUCHS

TEST...KCHS/KSAV Gateway Observations...TEST
National Weather Service Charleston SC
100 PM EST WED DEC 07 2016

NOTE: "fair" indicates few or no clouds below 12,000 feet with no
significant weather and/or obstructions to visibility.

SCZ050-WAZ558-NCZ071-TXZ119-213-PAZ071-DCZ001-FLZ074-172-MI076-
NYZ176-178-MAZ016-IL014-TNZ027-NJZ106-GAZ044-MD014-071900-
...Gateway Observations for Charleston International...

CITY           SKY/WX    TMP DP  RH WIND       PRES   REMARKS
Chas Airport   MOSUNNY   60  50  69 CALM      30.05F
6HR MIN TEMP:  51; 6HR MAX TEMP:  58;

Seattle        MOSUNNY   32  26  78 N14       30.41S WCI  22
6HR MIN TEMP:  28; 6HR MAX TEMP:  32; 6HR PCP: TRACE;

Charlotte      PTSUNNY   55  40  56 CALM      30.06F
6HR MIN TEMP:  42; 6HR MAX TEMP:  55;

Dallas DFW     CLOUDY    50  39  66 CALM      30.10F
6HR MIN TEMP:  37; 6HR MAX TEMP:  50;

Dallas Love    CLOUDY    52  40  63 CALM      30.11F
6HR MIN TEMP:  41; 6HR MAX TEMP:  52;

Philladelphia  CLOUDY    46  38  73 N9        30.00R
6HR MIN TEMP:  40; 6HR MAX TEMP:  46; 6HR PCP: TRACE;

Wash National  PTSUNNY   51  33  50 N10G18    30.04F
6HR MIN TEMP:  43; 6HR MAX TEMP:  51;

Baltimore      MOSUNNY   49  38  65 W10       30.01F
6HR MIN TEMP:  41; 6HR MAX TEMP:  50;

Miami          MOSUNNY   83  73  72 VRB3      30.01F
6HR MIN TEMP:  76; 6HR MAX TEMP:  84;

Detroit        PTSUNNY   36  24  62 SW15      30.03S WCI  27
6HR MIN TEMP:  31; 6HR MAX TEMP:  37;

Newark         CLOUDY    43  39  86 NW3       29.97F
6HR MIN TEMP:  39; 6HR MAX TEMP:  43; 6HR PCP: TRACE;

Laguardia      CLOUDY    46  39  76 VRB5      29.96F
6HR MIN TEMP:  41; 6HR MAX TEMP:  46; 6HR PCP: TRACE;

J F K          CLOUDY    45  39  79 CALM      29.97F
6HR MIN TEMP:  42; 6HR MAX TEMP:  45; 6HR PCP: TRACE;

Boston Logan   CLOUDY    41  38  89 N3        29.95F
6HR MIN TEMP:  36; 6HR MAX TEMP:  41; 6HR PCP:  0.03;

Ft. Lauderdale MOSUNNY   82  71  69 NW8       30.01F
6HR MIN TEMP:  75; 6HR MAX TEMP:  83;

Chicago O`Hare PTSUNNY   27  18  69 SW14      30.08F WCI  16
6HR MIN TEMP:  24; 6HR MAX TEMP:  27;

Chicago Midway MOSUNNY   29  18  63 SW15      30.09F WCI  18
6HR MIN TEMP:  26; 6HR MAX TEMP:  29;

Houston Bush   CLOUDY    52  49  89 E5        30.10F FOG
6HR MIN TEMP:  48; 6HR MAX TEMP:  53;

Houston Hobby  CLOUDY    56  53  90 CALM      30.09F
6HR MIN TEMP:  49; 6HR MAX TEMP:  56;

Nashville      PTSUNNY   48  33  56 VRB7      30.15F
6HR MIN TEMP:  36; 6HR MAX TEMP:  48;

Atlanta        MOSUNNY   57  43  59 SW7       30.04F
6HR MIN TEMP:  44; 6HR MAX TEMP:  58;


$$

GAZ044-118-TXZ119-213-NCZ071-DCZ001-MDZ014-506-PAZ021-071-NJZ106-
NYZ176-178-MAZ106-OHZ011-021-055-MIZ076-KYZ091-ILZ014-INZ047-
MNZ060-071900-
...Gateway Observations for Savannah International...

CITY           SKY/WX    TMP DP  RH WIND       PRES   REMARKS
Savannah Arpt  CLOUDY    62  53  72 NW5       30.04F
6HR MIN TEMP:  49; 6HR MAX TEMP:  63;

Atlanta        MOSUNNY   57  43  59 SW7       30.04F
6HR MIN TEMP:  44; 6HR MAX TEMP:  58;

Charlotte      PTSUNNY   55  40  56 CALM      30.06F
6HR MIN TEMP:  42; 6HR MAX TEMP:  55;

Dallas DFW     CLOUDY    50  39  66 CALM      30.10F
6HR MIN TEMP:  37; 6HR MAX TEMP:  50;

Houston Bush   CLOUDY    52  49  89 E5        30.10F FOG
6HR MIN TEMP:  48; 6HR MAX TEMP:  53;

Wash National  PTSUNNY   51  33  50 N10G18    30.04F
6HR MIN TEMP:  43; 6HR MAX TEMP:  51;

Wash Dulles    MOSUNNY   48  32  53 NW10      30.04S
6HR MIN TEMP:  39; 6HR MAX TEMP:  48;

Baltimore      MOSUNNY   49  38  65 W10       30.01F
6HR MIN TEMP:  41; 6HR MAX TEMP:  50;

Philadelphia   CLOUDY    46  38  73 N9        30.00R
6HR MIN TEMP:  40; 6HR MAX TEMP:  46; 6HR PCP: TRACE;

Newark         CLOUDY    43  39  86 NW3       29.97F
6HR MIN TEMP:  39; 6HR MAX TEMP:  43; 6HR PCP: TRACE;

Laguardia      CLOUDY    46  39  76 VRB5      29.96F
6HR MIN TEMP:  41; 6HR MAX TEMP:  46; 6HR PCP: TRACE;

J F K          CLOUDY    45  39  79 CALM      29.97F
6HR MIN TEMP:  42; 6HR MAX TEMP:  45; 6HR PCP: TRACE;

Boston         CLOUDY    41  38  89 N3        29.95F
6HR MIN TEMP:  36; 6HR MAX TEMP:  41; 6HR PCP:  0.03;

Pittsburg      MOSUNNY   41  25  53 W9        30.04F
6HR MIN TEMP:  35; 6HR MAX TEMP:  41;

Akron          PTSUNNY   36  22  56 SW12      30.04F WCI  28
6HR MIN TEMP:  30; 6HR MAX TEMP:  36;

Cleveland      PTSUNNY   38  23  55 SW16G22   30.08S WCI  29
6HR MIN TEMP:  31; 6HR MAX TEMP:  38;

Cincinnati     PTSUNNY   37  21  52 SW5       30.12F WCI  33
6HR MIN TEMP:  29; 6HR MAX TEMP:  38;

Columbus         N/A     36  24  61 SW10      30.12F WCI  28
Detroit        PTSUNNY   36  24  62 SW15      30.03S WCI  27
6HR MIN TEMP:  31; 6HR MAX TEMP:  37;

Chicago O`Hare PTSUNNY   27  18  69 SW14      30.08F WCI  16
6HR MIN TEMP:  24; 6HR MAX TEMP:  27;

Minneapolis    FLURRIES  19   9  65 W17G28    30.04S WCI   4
6HR MIN TEMP:  16; 6HR MAX TEMP:  19; 6HR PCP: TRACE;

Indianapolis   PTSUNNY   36  22  56 W9        30.14F WCI  29
6HR MIN TEMP:  24; 6HR MAX TEMP:  37;


$$




USA.gov is the U.S. government's official web portal to all federal, state and local government web resources and services.